Time,TemperatureF,DewpointF,PressureIn,WindDirection,WindDirectionDegrees,WindSpeedMPH,WindSpeedGustMPH,Humidity,HourlyPrecipIn,Conditions,Clouds,dailyrainin,SoftwareType,DateUTC
2013-03-03 00:01:00,29.8,19.8,29.82,WNW,294,2.0,2.0,66,0.00,,,0.00,Wunderground v.1.15,2013-03-03 05:01:00,
2013-03-03 00:02:00,29.8,19.8,29.82,NW,305,2.0,6.0,66,0.00,,,0.00,Wunderground v.1.15,2013-03-03 05:02:00,
2013-03-03 00:04:00,29.8,19.8,29.82,NW,309,3.0,6.0,66,0.00,,,0.00,Wunderground v.1.15,2013-03-03 05:04:00,
2013-03-03 00:08:00,29.8,19.8,29.82,NW,311,2.0,6.0,66,0.00,,,0.00,Wunderground v.1.15,2013-03-03 05:08:00,
2013-03-03 00:13:00,29.8,20.2,29.82,NNW,335,3.0,6.0,67,0.00,,,0.00,Wunderground v.1.15,2013-03-03 05:13:00,
2013-03-03 00:18:00,29.8,20.2,29.82,WNW,284,3.0,6.0,67,0.00,,,0.00,Wunderground v.1.15,2013-03-03 05:18:00,
2013-03-03 00:23:00,29.8,20.2,29.82,NNW,333,2.0,2.0,67,0.00,,,0.00,Wunderground v.1.15,2013-03-03 05:23:00,
2013-03-03 00:28:00,29.8,20.5,29.82,West,277,2.0,2.0,68,0.00,,,0.00,Wunderground v.1.15,2013-03-03 05:28:00,
2013-03-03 00:33:00,29.8,20.5,29.82,NW,316,1.0,1.0,68,0.00,,,0.00,Wunderground v.1.15,2013-03-03 05:33:00,
2013-03-03 00:38:00,29.7,20.4,29.82,NW,322,1.0,7.0,68,0.00,,,0.00,Wunderground v.1.15,2013-03-03 05:38:00,
2013-03-03 00:44:00,29.7,20.4,29.82,NW,320,2.0,7.0,68,0.00,,,0.00,Wunderground v.1.15,2013-03-03 05:44:00,
2013-03-03 00:51:00,29.7,20.8,29.82,NNW,329,3.0,3.0,69,0.00,,,0.00,Wunderground v.1.15,2013-03-03 05:51:00,
2013-03-03 00:56:00,29.7,20.8,29.82,NW,311,3.0,7.0,69,0.00,,,0.00,Wunderground v.1.15,2013-03-03 05:56:00,
2013-03-03 01:01:00,29.5,20.6,29.82,NW,312,2.0,2.0,69,0.00,,,0.00,Wunderground v.1.15,2013-03-03 06:01:00,
2013-03-03 01:07:00,29.5,20.6,29.82,WNW,302,2.0,9.0,69,0.00,,,0.00,Wunderground v.1.15,2013-03-03 06:07:00,
2013-03-03 01:12:00,29.5,20.6,29.82,NW,326,2.0,4.0,69,0.00,,,0.00,Wunderground v.1.15,2013-03-03 06:12:00,
2013-03-03 01:17:00,29.5,20.6,29.82,NW,323,1.0,7.0,69,0.00,,,0.00,Wunderground v.1.15,2013-03-03 06:17:00,
2013-03-03 01:22:00,29.4,20.5,29.82,West,280,2.0,2.0,69,0.00,,,0.00,Wunderground v.1.15,2013-03-03 06:22:00,
2013-03-03 01:27:00,29.4,20.5,29.82,NNW,344,2.0,2.0,69,0.00,,,0.00,Wunderground v.1.15,2013-03-03 06:27:00,
2013-03-03 01:32:00,29.4,20.5,29.82,West,281,1.0,1.0,69,0.00,,,0.00,Wunderground v.1.15,2013-03-03 06:32:00,
2013-03-03 01:37:00,29.4,20.5,29.82,North,0,1.0,8.0,69,0.00,,,0.00,Wunderground v.1.15,2013-03-03 06:37:00,
2013-03-03 01:42:00,29.3,20.4,29.82,WNW,289,2.0,2.0,69,0.00,,,0.00,Wunderground v.1.15,2013-03-03 06:42:00,
2013-03-03 01:47:00,29.3,20.4,29.82,WNW,288,2.0,4.0,69,0.00,,,0.00,Wunderground v.1.15,2013-03-03 06:47:00,
2013-03-03 01:52:00,29.3,20.4,29.82,WNW,299,1.0,4.0,69,0.00,,,0.00,Wunderground v.1.15,2013-03-03 06:52:00,
2013-03-03 01:57:00,29.1,20.2,29.82,NW,315,2.0,4.0,69,0.00,,,0.00,Wunderground v.1.15,2013-03-03 06:57:00,
2013-03-03 02:02:00,29.1,20.2,29.82,NNW,346,2.0,2.0,69,0.00,,,0.00,Wunderground v.1.15,2013-03-03 07:02:00,
2013-03-03 02:07:00,29.1,20.2,29.82,NW,326,1.0,4.0,69,0.00,,,0.00,Wunderground v.1.15,2013-03-03 07:07:00,
2013-03-03 02:12:00,29.1,20.2,29.82,NW,304,1.0,1.0,69,0.00,,,0.00,Wunderground v.1.15,2013-03-03 07:12:00,
2013-03-03 02:17:00,29.0,20.1,29.82,WNW,294,1.0,4.0,69,0.00,,,0.00,Wunderground v.1.15,2013-03-03 07:17:00,
2013-03-03 02:22:00,29.0,20.1,29.82,NW,316,1.0,1.0,69,0.00,,,0.00,Wunderground v.1.15,2013-03-03 07:22:00,
2013-03-03 02:27:00,29.0,19.8,29.82,WNW,287,1.0,6.0,68,0.00,,,0.00,Wunderground v.1.15,2013-03-03 07:27:00,
2013-03-03 02:32:00,29.0,19.8,29.81,WNW,301,1.0,1.0,68,0.00,,,0.00,Wunderground v.1.15,2013-03-03 07:32:00,
2013-03-03 02:37:00,28.8,19.6,29.81,West,280,1.0,1.0,68,0.00,,,0.00,Wunderground v.1.15,2013-03-03 07:37:00,
2013-03-03 02:42:00,28.8,19.6,29.81,WNW,285,1.0,1.0,68,0.00,,,0.00,Wunderground v.1.15,2013-03-03 07:42:00,
2013-03-03 02:47:00,28.8,19.6,29.81,NW,315,1.0,4.0,68,0.00,,,0.00,Wunderground v.1.15,2013-03-03 07:47:00,
2013-03-03 02:52:00,28.8,19.6,29.81,NW,306,1.0,1.0,68,0.00,,,0.00,Wunderground v.1.15,2013-03-03 07:52:00,
2013-03-03 02:57:00,28.7,19.5,29.81,NNW,329,1.0,2.0,68,0.00,,,0.00,Wunderground v.1.15,2013-03-03 07:57:00,
2013-03-03 03:02:00,28.7,19.5,29.81,WNW,299,2.0,2.0,68,0.00,,,0.00,Wunderground v.1.15,2013-03-03 08:02:00,
2013-03-03 03:07:00,28.8,19.6,29.81,WNW,292,2.0,2.0,68,0.00,,,0.00,Wunderground v.1.15,2013-03-03 08:07:00,
2013-03-03 03:12:00,28.8,19.6,29.81,West,281,2.0,3.0,68,0.00,,,0.00,Wunderground v.1.15,2013-03-03 08:12:00,
2013-03-03 03:17:00,29.0,19.4,29.81,NW,308,2.0,4.0,67,0.00,,,0.00,Wunderground v.1.15,2013-03-03 08:17:00,
2013-03-03 03:22:00,29.0,19.4,29.81,NW,312,1.0,2.0,67,0.00,,,0.00,Wunderground v.1.15,2013-03-03 08:22:00,
2013-03-03 03:28:00,29.0,19.4,29.81,NW,309,1.0,8.0,67,0.00,,,0.00,Wunderground v.1.15,2013-03-03 08:28:00,
2013-03-03 03:33:00,29.1,19.5,29.81,West,280,1.0,1.0,67,0.00,,,0.00,Wunderground v.1.15,2013-03-03 08:33:00,
2013-03-03 03:38:00,29.1,19.5,29.81,West,278,1.0,2.0,67,0.00,,,0.00,Wunderground v.1.15,2013-03-03 08:38:00,
2013-03-03 03:43:00,29.1,19.5,29.81,NW,313,1.0,6.0,67,0.00,,,0.00,Wunderground v.1.15,2013-03-03 08:43:00,
2013-03-03 03:48:00,29.1,19.5,29.80,NW,315,0.0,6.0,67,0.00,,,0.00,Wunderground v.1.15,2013-03-03 08:48:00,
2013-03-03 03:54:00,29.1,19.5,29.80,NW,313,0.0,6.0,67,0.00,,,0.00,Wunderground v.1.15,2013-03-03 08:54:00,
2013-03-03 03:59:00,29.3,19.7,29.81,NW,311,1.0,6.0,67,0.00,,,0.00,Wunderground v.1.15,2013-03-03 08:59:00,
2013-03-03 04:04:00,29.3,19.7,29.81,NNW,332,1.0,1.0,67,0.00,,,0.00,Wunderground v.1.15,2013-03-03 09:04:00,
2013-03-03 04:09:00,29.3,19.7,29.81,NW,308,1.0,2.0,67,0.00,,,0.00,Wunderground v.1.15,2013-03-03 09:09:00,
2013-03-03 04:14:00,29.4,19.8,29.81,NW,320,1.0,1.0,67,0.00,,,0.00,Wunderground v.1.15,2013-03-03 09:14:00,
2013-03-03 04:19:00,29.4,19.8,29.81,West,278,1.0,1.0,67,0.00,,,0.00,Wunderground v.1.15,2013-03-03 09:19:00,
2013-03-03 04:26:00,29.4,19.4,29.81,WNW,289,0.0,1.0,66,0.00,,,0.00,Wunderground v.1.15,2013-03-03 09:26:00,
2013-03-03 04:31:00,29.4,19.4,29.81,WNW,294,0.0,0.0,66,0.00,,,0.00,Wunderground v.1.15,2013-03-03 09:31:00,
2013-03-03 04:37:00,29.4,19.4,29.81,NW,318,0.0,2.0,66,0.00,,,0.00,Wunderground v.1.15,2013-03-03 09:37:00,
2013-03-03 04:42:00,29.3,19.3,29.81,WNW,299,0.0,0.0,66,0.00,,,0.00,Wunderground v.1.15,2013-03-03 09:42:00,
2013-03-03 04:47:00,29.3,19.3,29.82,NW,315,0.0,0.0,66,0.00,,,0.00,Wunderground v.1.15,2013-03-03 09:47:00,
2013-03-03 04:52:00,29.3,19.3,29.82,NW,306,0.0,0.0,66,0.00,,,0.00,Wunderground v.1.15,2013-03-03 09:52:00,
2013-03-03 04:57:00,29.1,19.5,29.82,NW,305,0.0,0.0,67,0.00,,,0.00,Wunderground v.1.15,2013-03-03 09:57:00,
2013-03-03 05:02:00,29.0,19.4,29.82,NW,305,0.0,0.0,67,0.00,,,0.00,Wunderground v.1.15,2013-03-03 10:02:00,
2013-03-03 05:07:00,29.0,19.4,29.82,NW,313,0.0,0.0,67,0.00,,,0.00,Wunderground v.1.15,2013-03-03 10:07:00,
2013-03-03 05:12:00,28.8,19.2,29.82,NW,325,0.0,0.0,67,0.00,,,0.00,Wunderground v.1.15,2013-03-03 10:12:00,
2013-03-03 05:17:00,28.8,19.2,29.82,NW,308,0.0,1.0,67,0.00,,,0.00,Wunderground v.1.15,2013-03-03 10:17:00,
2013-03-03 05:22:00,28.7,19.5,29.82,NW,318,1.0,1.0,68,0.00,,,0.00,Wunderground v.1.15,2013-03-03 10:22:00,
2013-03-03 05:27:00,28.7,19.5,29.82,NNW,344,1.0,2.0,68,0.00,,,0.00,Wunderground v.1.15,2013-03-03 10:27:00,
2013-03-03 05:32:00,28.7,19.5,29.81,North,0,1.0,2.0,68,0.00,,,0.00,Wunderground v.1.15,2013-03-03 10:32:00,
2013-03-03 05:38:00,28.7,19.8,29.81,NW,308,1.0,2.0,69,0.00,,,0.00,Wunderground v.1.15,2013-03-03 10:38:00,
2013-03-03 05:43:00,28.7,19.8,29.81,NW,311,0.0,0.0,69,0.00,,,0.00,Wunderground v.1.15,2013-03-03 10:43:00,
2013-03-03 05:48:00,28.7,19.8,29.81,WNW,284,1.0,4.0,69,0.00,,,0.00,Wunderground v.1.15,2013-03-03 10:48:00,
2013-03-03 05:54:00,28.5,19.6,29.81,NNW,330,2.0,2.0,69,0.00,,,0.00,Wunderground v.1.15,2013-03-03 10:54:00,
2013-03-03 05:59:00,28.5,19.6,29.82,NNW,336,1.0,2.0,69,0.00,,,0.00,Wunderground v.1.15,2013-03-03 10:59:00,
2013-03-03 06:04:00,28.5,19.6,29.82,NW,325,0.0,8.0,69,0.00,,,0.00,Wunderground v.1.15,2013-03-03 11:04:00,
2013-03-03 06:09:00,28.5,19.6,29.82,NNW,332,1.0,8.0,69,0.00,,,0.00,Wunderground v.1.15,2013-03-03 11:09:00,
2013-03-03 06:14:00,28.5,19.6,29.81,WNW,292,0.0,2.0,69,0.00,,,0.00,Wunderground v.1.15,2013-03-03 11:14:00,
2013-03-03 06:19:00,28.5,19.6,29.81,NNW,335,0.0,2.0,69,0.00,,,0.00,Wunderground v.1.15,2013-03-03 11:19:00,
2013-03-03 06:24:00,28.5,20.0,29.81,NW,312,0.0,0.0,70,0.00,,,0.00,Wunderground v.1.15,2013-03-03 11:24:00,
2013-03-03 06:31:00,28.5,20.0,29.82,NNE,24,0.0,0.0,70,0.00,,,0.00,Wunderground v.1.15,2013-03-03 11:31:00,
2013-03-03 06:36:00,28.5,20.0,29.82,West,268,0.0,1.0,70,0.00,,,0.00,Wunderground v.1.15,2013-03-03 11:36:00,
2013-03-03 06:42:00,28.5,20.0,29.82,NNW,336,1.0,1.0,70,0.00,,,0.00,Wunderground v.1.15,2013-03-03 11:42:00,
2013-03-03 06:47:00,28.4,19.9,29.82,NNW,340,0.0,1.0,70,0.00,,,0.00,Wunderground v.1.15,2013-03-03 11:47:00,
2013-03-03 06:52:00,28.4,19.9,29.82,NW,304,0.0,1.0,70,0.00,,,0.00,Wunderground v.1.15,2013-03-03 11:52:00,
2013-03-03 06:57:00,28.4,19.9,29.82,North,356,0.0,1.0,70,0.00,,,0.00,Wunderground v.1.15,2013-03-03 11:57:00,
2013-03-03 07:02:00,28.4,19.9,29.82,NW,313,0.0,0.0,70,0.00,,,0.00,Wunderground v.1.15,2013-03-03 12:02:00,
2013-03-03 07:07:00,28.4,19.9,29.82,North,0,0.0,0.0,70,0.00,,,0.00,Wunderground v.1.15,2013-03-03 12:07:00,
2013-03-03 07:12:00,28.4,19.9,29.82,North,0,1.0,1.0,70,0.00,,,0.00,Wunderground v.1.15,2013-03-03 12:12:00,
2013-03-03 07:18:00,28.5,20.0,29.82,NNE,20,1.0,1.0,70,0.00,,,0.00,Wunderground v.1.15,2013-03-03 12:18:00,
2013-03-03 07:23:00,28.7,20.1,29.82,NNW,329,0.0,2.0,70,0.00,,,0.00,Wunderground v.1.15,2013-03-03 12:23:00,
2013-03-03 07:28:00,28.7,20.1,29.82,West,281,0.0,2.0,70,0.00,,,0.00,Wunderground v.1.15,2013-03-03 12:28:00,
2013-03-03 07:33:00,28.8,20.2,29.83,NNW,332,1.0,4.0,70,0.00,,,0.00,Wunderground v.1.15,2013-03-03 12:33:00,
2013-03-03 07:38:00,28.8,20.2,29.83,NW,318,0.0,4.0,70,0.00,,,0.00,Wunderground v.1.15,2013-03-03 12:38:00,
2013-03-03 07:43:00,29.0,20.4,29.83,NNW,330,0.0,1.0,70,0.00,,,0.00,Wunderground v.1.15,2013-03-03 12:43:00,
2013-03-03 07:48:00,29.1,20.5,29.83,WNW,294,0.0,4.0,70,0.00,,,0.00,Wunderground v.1.15,2013-03-03 12:48:00,
2013-03-03 07:53:00,29.3,20.7,29.83,NNW,346,1.0,1.0,70,0.00,,,0.00,Wunderground v.1.15,2013-03-03 12:53:00,
2013-03-03 07:58:00,29.4,20.8,29.83,NNE,13,1.0,1.0,70,0.00,,,0.00,Wunderground v.1.15,2013-03-03 12:58:00,
2013-03-03 08:04:00,29.5,20.9,29.83,NNE,27,1.0,4.0,70,0.00,,,0.00,Wunderground v.1.15,2013-03-03 13:04:00,
2013-03-03 08:09:00,29.7,20.8,29.83,North,349,1.0,4.0,69,0.00,,,0.00,Wunderground v.1.15,2013-03-03 13:09:00,
2013-03-03 08:16:00,30.0,21.1,29.83,NW,305,1.0,4.0,69,0.00,,,0.00,Wunderground v.1.15,2013-03-03 13:16:00,
2013-03-03 08:22:00,30.3,21.0,29.83,WNW,285,2.0,2.0,68,0.00,,,0.00,Wunderground v.1.15,2013-03-03 13:22:00,
2013-03-03 08:27:00,30.6,20.9,29.83,WNW,296,2.0,10.0,67,0.00,,,0.00,Wunderground v.1.15,2013-03-03 13:27:00,
2013-03-03 08:32:00,30.7,21.0,29.83,West,270,1.0,2.0,67,0.00,,,0.00,Wunderground v.1.15,2013-03-03 13:32:00,
2013-03-03 08:37:00,30.9,20.9,29.83,WNW,291,1.0,6.0,66,0.00,,,0.00,Wunderground v.1.15,2013-03-03 13:37:00,
2013-03-03 08:42:00,31.2,20.8,29.83,WNW,294,2.0,4.0,65,0.00,,,0.00,Wunderground v.1.15,2013-03-03 13:42:00,
2013-03-03 08:48:00,31.5,21.1,29.83,NW,325,3.0,8.0,65,0.00,,,0.00,Wunderground v.1.15,2013-03-03 13:48:00,
2013-03-03 08:53:00,31.8,20.6,29.83,NW,322,3.0,7.0,63,0.00,,,0.00,Wunderground v.1.15,2013-03-03 13:53:00,
2013-03-03 08:58:00,31.9,20.0,29.83,NW,311,3.0,7.0,61,0.00,,,0.00,Wunderground v.1.15,2013-03-03 13:58:00,
2013-03-03 09:03:00,32.2,20.2,29.83,WNW,288,3.0,11.0,61,0.00,,,0.00,Wunderground v.1.15,2013-03-03 14:03:00,
2013-03-03 09:08:00,32.4,19.7,29.83,NNW,337,4.0,11.0,59,0.00,,,0.00,Wunderground v.1.15,2013-03-03 14:08:00,
2013-03-03 09:14:00,32.7,19.5,29.83,NNW,337,5.0,15.0,58,0.00,,,0.00,Wunderground v.1.15,2013-03-03 14:14:00,
2013-03-03 09:19:00,32.9,19.3,29.83,NW,306,6.0,15.0,57,0.00,,,0.00,Wunderground v.1.15,2013-03-03 14:19:00,
2013-03-03 09:24:00,33.5,19.5,29.83,NW,309,6.0,11.0,56,0.00,,,0.00,Wunderground v.1.15,2013-03-03 14:24:00,
2013-03-03 09:29:00,34.3,19.4,29.83,North,0,4.0,11.0,54,0.00,,,0.00,Wunderground v.1.15,2013-03-03 14:29:00,
2013-03-03 09:36:00,34.7,18.4,29.83,SE,126,4.0,9.0,51,0.00,,,0.00,Wunderground v.1.15,2013-03-03 14:36:00,
2013-03-03 09:41:00,34.7,17.5,29.83,SW,219,6.0,6.0,49,0.00,,,0.00,Wunderground v.1.15,2013-03-03 14:41:00,
2013-03-03 09:46:00,35.0,17.3,29.83,NNW,337,7.0,17.0,48,0.00,,,0.00,Wunderground v.1.15,2013-03-03 14:46:00,
2013-03-03 09:51:00,35.5,17.2,29.83,West,272,6.0,6.0,47,0.00,,,0.00,Wunderground v.1.15,2013-03-03 14:51:00,
2013-03-03 09:56:00,35.5,17.2,29.83,WSW,254,5.0,14.0,47,0.00,,,0.00,Wunderground v.1.15,2013-03-03 14:56:00,
2013-03-03 10:01:00,35.2,16.5,29.82,North,0,6.0,6.0,46,0.00,,,0.00,Wunderground v.1.15,2013-03-03 15:01:00,
2013-03-03 10:07:00,35.0,16.8,29.82,North,0,6.0,8.0,47,0.00,,,0.00,Wunderground v.1.15,2013-03-03 15:07:00,
2013-03-03 10:12:00,35.2,17.4,29.82,North,10,4.0,4.0,48,0.00,,,0.00,Wunderground v.1.15,2013-03-03 15:12:00,
2013-03-03 10:17:00,35.6,17.3,29.82,NNW,336,4.0,7.0,47,0.00,,,0.00,Wunderground v.1.15,2013-03-03 15:17:00,
2013-03-03 10:22:00,35.5,17.2,29.82,NNE,27,5.0,13.0,47,0.00,,,0.00,Wunderground v.1.15,2013-03-03 15:22:00,
2013-03-03 10:27:00,35.9,18.1,29.82,NW,308,5.0,13.0,48,0.00,,,0.00,Wunderground v.1.15,2013-03-03 15:27:00,
2013-03-03 10:32:00,36.0,17.7,29.82,SW,234,6.0,9.0,47,0.00,,,0.00,Wunderground v.1.15,2013-03-03 15:32:00,
2013-03-03 10:37:00,36.0,17.2,29.82,NW,313,5.0,9.0,46,0.00,,,0.00,Wunderground v.1.15,2013-03-03 15:37:00,
2013-03-03 10:42:00,36.0,17.7,29.82,West,264,3.0,9.0,47,0.00,,,0.00,Wunderground v.1.15,2013-03-03 15:42:00,
2013-03-03 10:47:00,35.9,17.1,29.82,NW,323,4.0,9.0,46,0.00,,,0.00,Wunderground v.1.15,2013-03-03 15:47:00,
2013-03-03 10:52:00,35.9,17.6,29.82,NNW,342,6.0,6.0,47,0.00,,,0.00,Wunderground v.1.15,2013-03-03 15:52:00,
2013-03-03 10:57:00,35.9,17.6,29.82,NW,319,4.0,9.0,47,0.00,,,0.00,Wunderground v.1.15,2013-03-03 15:57:00,
2013-03-03 11:03:00,36.2,18.4,29.82,WNW,291,3.0,8.0,48,0.00,,,0.00,Wunderground v.1.15,2013-03-03 16:03:00,
2013-03-03 11:08:00,36.0,17.7,29.82,NNW,339,4.0,10.0,47,0.00,,,0.00,Wunderground v.1.15,2013-03-03 16:08:00,
2013-03-03 11:13:00,36.0,18.2,29.82,WSW,240,5.0,8.0,48,0.00,,,0.00,Wunderground v.1.15,2013-03-03 16:13:00,
2013-03-03 11:19:00,36.3,18.5,29.82,West,280,5.0,11.0,48,0.00,,,0.00,Wunderground v.1.15,2013-03-03 16:19:00,
2013-03-03 11:24:00,36.2,18.4,29.82,NW,313,6.0,9.0,48,0.00,,,0.00,Wunderground v.1.15,2013-03-03 16:24:00,
2013-03-03 11:29:00,36.2,18.9,29.82,North,0,6.0,9.0,49,0.00,,,0.00,Wunderground v.1.15,2013-03-03 16:29:00,
2013-03-03 11:34:00,36.0,18.7,29.82,NW,309,5.0,11.0,49,0.00,,,0.00,Wunderground v.1.15,2013-03-03 16:34:00,
2013-03-03 11:41:00,36.2,18.9,29.82,SW,236,7.0,7.0,49,0.00,,,0.00,Wunderground v.1.15,2013-03-03 16:41:00,
2013-03-03 11:46:00,36.2,18.4,29.81,WNW,288,8.0,14.0,48,0.00,,,0.00,Wunderground v.1.15,2013-03-03 16:46:00,
2013-03-03 11:51:00,36.3,19.4,29.81,NW,316,6.0,6.0,50,0.00,,,0.00,Wunderground v.1.15,2013-03-03 16:51:00,
2013-03-03 11:56:00,36.5,18.6,29.81,West,270,4.0,11.0,48,0.00,,,0.00,Wunderground v.1.15,2013-03-03 16:56:00,
2013-03-03 12:01:00,36.3,18.5,29.82,NNW,346,5.0,9.0,48,0.00,,,0.00,Wunderground v.1.15,2013-03-03 17:01:00,
2013-03-03 12:07:00,36.8,18.4,29.82,WNW,291,6.0,9.0,47,0.00,,,0.00,Wunderground v.1.15,2013-03-03 17:07:00,
2013-03-03 12:12:00,37.5,19.1,29.82,NW,318,6.0,7.0,47,0.00,,,0.00,Wunderground v.1.15,2013-03-03 17:12:00,
2013-03-03 12:17:00,38.5,20.0,29.81,NNW,335,6.0,9.0,47,0.00,,,0.00,Wunderground v.1.15,2013-03-03 17:17:00,
2013-03-03 12:22:00,38.3,19.3,29.81,North,3,6.0,8.0,46,0.00,,,0.00,Wunderground v.1.15,2013-03-03 17:22:00,
2013-03-03 12:27:00,38.5,17.9,29.81,NNW,330,6.0,9.0,43,0.00,,,0.00,Wunderground v.1.15,2013-03-03 17:27:00,
2013-03-03 12:32:00,38.3,18.8,29.80,West,277,5.0,7.0,45,0.00,,,0.00,Wunderground v.1.15,2013-03-03 17:32:00,
2013-03-03 12:37:00,37.9,18.4,29.80,NW,309,4.0,11.0,45,0.00,,,0.00,Wunderground v.1.15,2013-03-03 17:37:00,
2013-03-03 12:42:00,38.3,20.3,29.80,WSW,251,3.0,7.0,48,0.00,,,0.00,Wunderground v.1.15,2013-03-03 17:42:00,
2013-03-03 12:47:00,38.3,18.3,29.79,NE,37,5.0,10.0,44,0.00,,,0.00,Wunderground v.1.15,2013-03-03 17:47:00,
2013-03-03 12:53:00,38.2,18.2,29.79,North,356,7.0,18.0,44,0.00,,,0.00,Wunderground v.1.15,2013-03-03 17:53:00,
2013-03-03 12:58:00,38.0,18.0,29.79,North,0,6.0,18.0,44,0.00,,,0.00,Wunderground v.1.15,2013-03-03 17:58:00,
2013-03-03 13:03:00,37.6,17.6,29.79,NW,311,3.0,8.0,44,0.00,,,0.00,Wunderground v.1.15,2013-03-03 18:03:00,
2013-03-03 13:09:00,38.0,18.0,29.79,WNW,299,3.0,8.0,44,0.00,,,0.00,Wunderground v.1.15,2013-03-03 18:09:00,
2013-03-03 13:14:00,38.6,18.0,29.79,NW,305,5.0,9.0,43,0.00,,,0.00,Wunderground v.1.15,2013-03-03 18:14:00,
2013-03-03 13:19:00,38.8,18.7,29.79,West,268,5.0,16.0,44,0.00,,,0.00,Wunderground v.1.15,2013-03-03 18:19:00,
2013-03-03 13:24:00,38.6,17.5,29.79,West,272,6.0,15.0,42,0.00,,,0.00,Wunderground v.1.15,2013-03-03 18:24:00,
2013-03-03 13:29:00,38.6,18.0,29.78,NW,322,7.0,15.0,43,0.00,,,0.00,Wunderground v.1.15,2013-03-03 18:29:00,
2013-03-03 13:34:00,38.9,17.2,29.78,West,280,7.0,15.0,41,0.00,,,0.00,Wunderground v.1.15,2013-03-03 18:34:00,
2013-03-03 13:39:00,38.8,17.6,29.78,NW,319,6.0,15.0,42,0.00,,,0.00,Wunderground v.1.15,2013-03-03 18:39:00,
2013-03-03 13:46:00,38.8,18.2,29.77,West,268,5.0,9.0,43,0.00,,,0.00,Wunderground v.1.15,2013-03-03 18:46:00,
2013-03-03 13:51:00,39.5,18.3,29.77,North,0,4.0,4.0,42,0.00,,,0.00,Wunderground v.1.15,2013-03-03 18:51:00,
2013-03-03 13:56:00,39.6,17.8,29.77,NW,311,4.0,8.0,41,0.00,,,0.00,Wunderground v.1.15,2013-03-03 18:56:00,
2013-03-03 14:01:00,40.2,17.8,29.76,WSW,250,3.0,3.0,40,0.00,,,0.00,Wunderground v.1.15,2013-03-03 19:01:00,
2013-03-03 14:07:00,40.2,18.9,29.76,NW,304,3.0,6.0,42,0.00,,,0.00,Wunderground v.1.15,2013-03-03 19:07:00,
2013-03-03 14:12:00,39.9,17.5,29.76,NW,306,4.0,7.0,40,0.00,,,0.00,Wunderground v.1.15,2013-03-03 19:12:00,
2013-03-03 14:17:00,39.8,18.0,29.76,West,274,6.0,14.0,41,0.00,,,0.00,Wunderground v.1.15,2013-03-03 19:17:00,
2013-03-03 14:22:00,39.8,17.4,29.76,WSW,246,6.0,8.0,40,0.00,,,0.00,Wunderground v.1.15,2013-03-03 19:22:00,
2013-03-03 14:27:00,39.9,18.1,29.76,WSW,258,6.0,10.0,41,0.00,,,0.00,Wunderground v.1.15,2013-03-03 19:27:00,
2013-03-03 14:32:00,39.6,17.2,29.76,West,275,6.0,6.0,40,0.00,,,0.00,Wunderground v.1.15,2013-03-03 19:32:00,
2013-03-03 14:37:00,39.5,17.7,29.76,WNW,287,8.0,13.0,41,0.00,,,0.00,Wunderground v.1.15,2013-03-03 19:37:00,
2013-03-03 14:42:00,40.1,19.4,29.76,West,263,6.0,11.0,43,0.00,,,0.00,Wunderground v.1.15,2013-03-03 19:42:00,
2013-03-03 14:48:00,40.6,18.1,29.76,West,264,4.0,11.0,40,0.00,,,0.00,Wunderground v.1.15,2013-03-03 19:48:00,
2013-03-03 14:53:00,40.5,17.5,29.76,NW,312,7.0,14.0,39,0.00,,,0.00,Wunderground v.1.15,2013-03-03 19:53:00,
2013-03-03 14:59:00,40.3,17.3,29.76,WSW,256,6.0,14.0,39,0.00,,,0.00,Wunderground v.1.15,2013-03-03 19:59:00,
2013-03-03 15:04:00,40.3,17.9,29.76,NW,323,5.0,6.0,40,0.00,,,0.00,Wunderground v.1.15,2013-03-03 20:04:00,
2013-03-03 15:09:00,40.6,18.1,29.76,WNW,302,5.0,7.0,40,0.00,,,0.00,Wunderground v.1.15,2013-03-03 20:09:00,
2013-03-03 15:14:00,40.8,17.7,29.76,WNW,285,5.0,10.0,39,0.00,,,0.00,Wunderground v.1.15,2013-03-03 20:14:00,
2013-03-03 15:21:00,40.5,18.0,29.76,WNW,284,5.0,13.0,40,0.00,,,0.00,Wunderground v.1.15,2013-03-03 20:21:00,
2013-03-03 15:26:00,40.3,17.9,29.76,West,261,5.0,13.0,40,0.00,,,0.00,Wunderground v.1.15,2013-03-03 20:26:00,
2013-03-03 15:31:00,40.3,17.9,29.76,NNW,344,5.0,5.0,40,0.00,,,0.00,Wunderground v.1.15,2013-03-03 20:31:00,
2013-03-03 15:37:00,40.5,18.0,29.76,North,0,4.0,7.0,40,0.00,,,0.00,Wunderground v.1.15,2013-03-03 20:37:00,
2013-03-03 15:42:00,40.6,18.1,29.76,NNW,330,4.0,8.0,40,0.00,,,0.00,Wunderground v.1.15,2013-03-03 20:42:00,
2013-03-03 15:47:00,40.9,17.8,29.76,NW,319,6.0,8.0,39,0.00,,,0.00,Wunderground v.1.15,2013-03-03 20:47:00,
2013-03-03 15:52:00,40.8,17.1,29.76,NNW,329,7.0,8.0,38,0.00,,,0.00,Wunderground v.1.15,2013-03-03 20:52:00,
2013-03-03 15:57:00,40.9,18.4,29.76,NW,325,6.0,11.0,40,0.00,,,0.00,Wunderground v.1.15,2013-03-03 20:57:00,
2013-03-03 16:02:00,40.9,17.8,29.76,WNW,288,5.0,8.0,39,0.00,,,0.00,Wunderground v.1.15,2013-03-03 21:02:00,
2013-03-03 16:07:00,40.9,17.8,29.76,West,261,4.0,11.0,39,0.00,,,0.00,Wunderground v.1.15,2013-03-03 21:07:00,
2013-03-03 16:13:00,40.8,18.3,29.76,West,278,4.0,15.0,40,0.00,,,0.00,Wunderground v.1.15,2013-03-03 21:13:00,
2013-03-03 16:18:00,40.5,18.0,29.77,NW,306,6.0,15.0,40,0.00,,,0.00,Wunderground v.1.15,2013-03-03 21:18:00,
2013-03-03 16:23:00,40.5,18.0,29.77,WNW,285,6.0,7.0,40,0.00,,,0.00,Wunderground v.1.15,2013-03-03 21:23:00,
2013-03-03 16:28:00,40.3,17.9,29.77,WNW,301,4.0,7.0,40,0.00,,,0.00,Wunderground v.1.15,2013-03-03 21:28:00,
2013-03-03 16:33:00,40.2,17.8,29.77,NNW,329,6.0,16.0,40,0.00,,,0.00,Wunderground v.1.15,2013-03-03 21:33:00,
2013-03-03 16:39:00,39.9,17.5,29.77,WNW,294,7.0,16.0,40,0.00,,,0.00,Wunderground v.1.15,2013-03-03 21:39:00,
2013-03-03 16:44:00,39.6,17.2,29.77,NW,323,7.0,10.0,40,0.00,,,0.00,Wunderground v.1.15,2013-03-03 21:44:00,
2013-03-03 16:50:00,39.5,17.1,29.77,WNW,291,6.0,14.0,40,0.00,,,0.00,Wunderground v.1.15,2013-03-03 21:50:00,
2013-03-03 16:56:00,39.2,17.4,29.77,NW,318,5.0,7.0,41,0.00,,,0.00,Wunderground v.1.15,2013-03-03 21:56:00,
2013-03-03 17:01:00,39.1,17.4,29.77,West,263,5.0,5.0,41,0.00,,,0.00,Wunderground v.1.15,2013-03-03 22:01:00,
2013-03-03 17:06:00,38.9,17.2,29.77,West,267,6.0,10.0,41,0.00,,,0.00,Wunderground v.1.15,2013-03-03 22:06:00,
2013-03-03 17:12:00,38.8,17.1,29.77,West,277,5.0,5.0,41,0.00,,,0.00,Wunderground v.1.15,2013-03-03 22:12:00,
2013-03-03 17:17:00,38.6,18.0,29.78,NW,323,5.0,7.0,43,0.00,,,0.00,Wunderground v.1.15,2013-03-03 22:17:00,
2013-03-03 17:22:00,38.6,18.0,29.78,NW,306,4.0,6.0,43,0.00,,,0.00,Wunderground v.1.15,2013-03-03 22:22:00,
2013-03-03 17:27:00,38.5,17.9,29.78,WNW,292,6.0,14.0,43,0.00,,,0.00,Wunderground v.1.15,2013-03-03 22:27:00,
2013-03-03 17:33:00,38.3,17.7,29.79,West,281,7.0,10.0,43,0.00,,,0.00,Wunderground v.1.15,2013-03-03 22:33:00,
2013-03-03 17:38:00,38.2,17.6,29.79,NW,304,6.0,10.0,43,0.00,,,0.00,Wunderground v.1.15,2013-03-03 22:38:00,
2013-03-03 17:43:00,38.0,18.0,29.79,WSW,257,4.0,14.0,44,0.00,,,0.00,Wunderground v.1.15,2013-03-03 22:43:00,
2013-03-03 17:49:00,37.9,17.9,29.79,West,277,5.0,14.0,44,0.00,,,0.00,Wunderground v.1.15,2013-03-03 22:49:00,
2013-03-03 17:54:00,37.8,17.8,29.79,WNW,296,6.0,8.0,44,0.00,,,0.00,Wunderground v.1.15,2013-03-03 22:54:00,
2013-03-03 17:59:00,37.6,17.6,29.80,NNW,335,5.0,8.0,44,0.00,,,0.00,Wunderground v.1.15,2013-03-03 22:59:00,
2013-03-03 18:04:00,37.3,17.9,29.80,WSW,243,4.0,17.0,45,0.00,,,0.00,Wunderground v.1.15,2013-03-03 23:04:00,
2013-03-03 18:11:00,37.0,17.6,29.80,West,277,5.0,8.0,45,0.00,,,0.00,Wunderground v.1.15,2013-03-03 23:11:00,
2013-03-03 18:16:00,36.9,17.5,29.81,West,270,6.0,11.0,45,0.00,,,0.00,Wunderground v.1.15,2013-03-03 23:16:00,
2013-03-03 18:21:00,36.6,17.7,29.81,WNW,302,6.0,7.0,46,0.00,,,0.00,Wunderground v.1.15,2013-03-03 23:21:00,
2013-03-03 18:27:00,36.5,17.7,29.81,West,277,5.0,7.0,46,0.00,,,0.00,Wunderground v.1.15,2013-03-03 23:27:00,
2013-03-03 18:32:00,36.3,18.0,29.82,WNW,301,3.0,3.0,47,0.00,,,0.00,Wunderground v.1.15,2013-03-03 23:32:00,
2013-03-03 18:38:00,36.3,18.0,29.82,North,350,4.0,17.0,47,0.00,,,0.00,Wunderground v.1.15,2013-03-03 23:38:00,
2013-03-03 18:43:00,36.2,17.9,29.82,NW,323,5.0,17.0,47,0.00,,,0.00,Wunderground v.1.15,2013-03-03 23:43:00,
2013-03-03 18:49:00,36.0,18.2,29.82,West,271,4.0,6.0,48,0.00,,,0.00,Wunderground v.1.15,2013-03-03 23:49:00,
2013-03-03 18:54:00,36.0,17.7,29.82,WNW,282,3.0,7.0,47,0.00,,,0.00,Wunderground v.1.15,2013-03-03 23:54:00,
2013-03-03 18:59:00,35.9,18.1,29.83,WNW,296,4.0,4.0,48,0.00,,,0.00,Wunderground v.1.15,2013-03-03 23:59:00,
2013-03-03 19:04:00,35.8,18.0,29.83,NNW,336,5.0,8.0,48,0.00,,,0.00,Wunderground v.1.15,2013-03-04 00:04:00,
2013-03-03 19:09:00,35.6,17.8,29.83,West,261,6.0,9.0,48,0.00,,,0.00,Wunderground v.1.15,2013-03-04 00:09:00,
2013-03-03 19:14:00,35.5,17.7,29.84,WNW,299,6.0,15.0,48,0.00,,,0.00,Wunderground v.1.15,2013-03-04 00:14:00,
2013-03-03 19:19:00,35.3,17.5,29.84,NNW,342,5.0,15.0,48,0.00,,,0.00,Wunderground v.1.15,2013-03-04 00:19:00,
2013-03-03 19:26:00,35.0,17.7,29.84,NW,305,4.0,10.0,49,0.00,,,0.00,Wunderground v.1.15,2013-03-04 00:26:00,
2013-03-03 19:31:00,34.9,18.1,29.84,NNW,336,3.0,3.0,50,0.00,,,0.00,Wunderground v.1.15,2013-03-04 00:31:00,
2013-03-03 19:36:00,34.7,17.9,29.84,NW,308,3.0,3.0,50,0.00,,,0.00,Wunderground v.1.15,2013-03-04 00:36:00,
2013-03-03 19:41:00,34.6,17.8,29.84,West,281,2.0,6.0,50,0.00,,,0.00,Wunderground v.1.15,2013-03-04 00:41:00,
2013-03-03 19:47:00,34.4,17.7,29.84,NNW,330,4.0,10.0,50,0.00,,,0.00,Wunderground v.1.15,2013-03-04 00:47:00,
2013-03-03 19:52:00,34.1,17.4,29.84,NW,319,4.0,10.0,50,0.00,,,0.00,Wunderground v.1.15,2013-03-04 00:52:00,
2013-03-03 19:57:00,34.1,17.4,29.84,WNW,296,4.0,9.0,50,0.00,,,0.00,Wunderground v.1.15,2013-03-04 00:57:00,
2013-03-03 20:02:00,33.8,17.1,29.85,WNW,296,5.0,7.0,50,0.00,,,0.00,Wunderground v.1.15,2013-03-04 01:02:00,
2013-03-03 20:07:00,33.7,17.0,29.85,NW,316,5.0,9.0,50,0.00,,,0.00,Wunderground v.1.15,2013-03-04 01:07:00,
2013-03-03 20:12:00,33.7,17.5,29.85,NW,312,2.0,3.0,51,0.00,,,0.00,Wunderground v.1.15,2013-03-04 01:12:00,
2013-03-03 20:17:00,33.5,17.3,29.85,NNW,337,1.0,4.0,51,0.00,,,0.00,Wunderground v.1.15,2013-03-04 01:17:00,
2013-03-03 20:22:00,33.4,17.2,29.85,WNW,287,1.0,1.0,51,0.00,,,0.00,Wunderground v.1.15,2013-03-04 01:22:00,
2013-03-03 20:27:00,33.2,17.0,29.85,NW,316,2.0,8.0,51,0.00,,,0.00,Wunderground v.1.15,2013-03-04 01:27:00,
2013-03-03 20:33:00,33.1,16.9,29.86,NW,308,2.0,2.0,51,0.00,,,0.00,Wunderground v.1.15,2013-03-04 01:33:00,
2013-03-03 20:38:00,32.9,16.7,29.86,NW,311,1.0,2.0,51,0.00,,,0.00,Wunderground v.1.15,2013-03-04 01:38:00,
2013-03-03 20:43:00,32.8,17.1,29.86,NW,326,0.0,2.0,52,0.00,,,0.00,Wunderground v.1.15,2013-03-04 01:43:00,
2013-03-03 20:48:00,32.8,17.1,29.87,NW,312,0.0,2.0,52,0.00,,,0.00,Wunderground v.1.15,2013-03-04 01:48:00,
2013-03-03 20:53:00,32.5,16.8,29.87,NW,309,2.0,7.0,52,0.00,,,0.00,Wunderground v.1.15,2013-03-04 01:53:00,
2013-03-03 20:58:00,32.5,16.8,29.87,NW,304,4.0,7.0,52,0.00,,,0.00,Wunderground v.1.15,2013-03-04 01:58:00,
2013-03-03 21:04:00,32.4,16.7,29.87,NW,320,3.0,4.0,52,0.00,,,0.00,Wunderground v.1.15,2013-03-04 02:04:00,
2013-03-03 21:09:00,32.2,16.5,29.87,NW,326,2.0,7.0,52,0.00,,,0.00,Wunderground v.1.15,2013-03-04 02:09:00,
2013-03-03 21:14:00,32.1,16.4,29.87,NW,313,1.0,2.0,52,0.00,,,0.00,Wunderground v.1.15,2013-03-04 02:14:00,
2013-03-03 21:19:00,32.1,16.4,29.87,NW,308,3.0,7.0,52,0.00,,,0.00,Wunderground v.1.15,2013-03-04 02:19:00,
2013-03-03 21:24:00,31.9,16.2,29.87,NW,318,3.0,3.0,52,0.00,,,0.00,Wunderground v.1.15,2013-03-04 02:24:00,
2013-03-03 21:29:00,31.8,15.7,29.88,NW,308,2.0,7.0,51,0.00,,,0.00,Wunderground v.1.15,2013-03-04 02:29:00,
2013-03-03 21:34:00,31.8,15.7,29.88,WNW,288,3.0,7.0,51,0.00,,,0.00,Wunderground v.1.15,2013-03-04 02:34:00,
2013-03-03 21:41:00,31.6,15.5,29.88,NNE,27,4.0,4.0,51,0.00,,,0.00,Wunderground v.1.15,2013-03-04 02:41:00,
2013-03-03 21:46:00,31.6,15.5,29.88,NW,309,3.0,8.0,51,0.00,,,0.00,Wunderground v.1.15,2013-03-04 02:46:00,
2013-03-03 21:51:00,31.5,15.4,29.88,West,271,4.0,4.0,51,0.00,,,0.00,Wunderground v.1.15,2013-03-04 02:51:00,
2013-03-03 21:57:00,31.5,15.4,29.88,NW,325,3.0,6.0,51,0.00,,,0.00,Wunderground v.1.15,2013-03-04 02:57:00,
2013-03-03 22:02:00,31.3,15.7,29.88,North,0,2.0,2.0,52,0.00,,,0.00,Wunderground v.1.15,2013-03-04 03:02:00,
2013-03-03 22:07:00,31.3,15.7,29.88,NW,306,3.0,6.0,52,0.00,,,0.00,Wunderground v.1.15,2013-03-04 03:07:00,
2013-03-03 22:12:00,31.2,15.6,29.88,NW,326,3.0,11.0,52,0.00,,,0.00,Wunderground v.1.15,2013-03-04 03:12:00,
2013-03-03 22:18:00,31.2,15.6,29.88,NW,306,4.0,11.0,52,0.00,,,0.00,Wunderground v.1.15,2013-03-04 03:18:00,
2013-03-03 22:23:00,31.2,15.6,29.88,NNW,330,4.0,7.0,52,0.00,,,0.00,Wunderground v.1.15,2013-03-04 03:23:00,
2013-03-03 22:29:00,31.0,15.4,29.89,NW,305,2.0,7.0,52,0.00,,,0.00,Wunderground v.1.15,2013-03-04 03:29:00,
2013-03-03 22:34:00,31.0,15.4,29.89,WNW,295,2.0,6.0,52,0.00,,,0.00,Wunderground v.1.15,2013-03-04 03:34:00,
2013-03-03 22:39:00,30.9,15.8,29.89,NW,315,3.0,11.0,53,0.00,,,0.00,Wunderground v.1.15,2013-03-04 03:39:00,
2013-03-03 22:44:00,30.7,15.6,29.88,WNW,302,2.0,9.0,53,0.00,,,0.00,Wunderground v.1.15,2013-03-04 03:44:00,
2013-03-03 22:49:00,30.7,15.6,29.88,WNW,285,3.0,9.0,53,0.00,,,0.00,Wunderground v.1.15,2013-03-04 03:49:00,
2013-03-03 22:54:00,30.7,15.6,29.88,NW,305,4.0,7.0,53,0.00,,,0.00,Wunderground v.1.15,2013-03-04 03:54:00,
2013-03-03 23:00:00,30.6,15.5,29.88,NNW,335,5.0,7.0,53,0.00,,,0.00,Wunderground v.1.15,2013-03-04 04:00:00,
2013-03-03 23:06:00,30.6,15.5,29.88,North,357,5.0,7.0,53,0.00,,,0.00,Wunderground v.1.15,2013-03-04 04:06:00,
2013-03-03 23:11:00,30.6,15.9,29.88,NW,325,5.0,5.0,54,0.00,,,0.00,Wunderground v.1.15,2013-03-04 04:11:00,
2013-03-03 23:17:00,30.4,15.7,29.88,NW,306,3.0,7.0,54,0.00,,,0.00,Wunderground v.1.15,2013-03-04 04:17:00,
2013-03-03 23:22:00,30.4,15.7,29.88,NW,320,3.0,11.0,54,0.00,,,0.00,Wunderground v.1.15,2013-03-04 04:22:00,
2013-03-03 23:27:00,30.4,15.7,29.88,NW,315,3.0,11.0,54,0.00,,,0.00,Wunderground v.1.15,2013-03-04 04:27:00,
2013-03-03 23:32:00,30.3,16.0,29.88,NW,315,2.0,6.0,55,0.00,,,0.00,Wunderground v.1.15,2013-03-04 04:32:00,
2013-03-03 23:37:00,30.3,16.0,29.88,NW,312,4.0,8.0,55,0.00,,,0.00,Wunderground v.1.15,2013-03-04 04:37:00,
2013-03-03 23:42:00,30.3,16.0,29.88,WNW,292,4.0,8.0,55,0.00,,,0.00,Wunderground v.1.15,2013-03-04 04:42:00,
2013-03-03 23:47:00,30.1,15.9,29.88,NW,325,2.0,8.0,55,0.00,,,0.00,Wunderground v.1.15,2013-03-04 04:47:00,
2013-03-03 23:52:00,30.1,15.9,29.88,NNW,333,2.0,4.0,55,0.00,,,0.00,Wunderground v.1.15,2013-03-04 04:52:00,
2013-03-03 23:57:00,30.1,15.9,29.88,WNW,299,3.0,4.0,55,0.00,,,0.00,Wunderground v.1.15,2013-03-04 04:57:00,